DLH1CF EDLP-EDDL

Flight info

Callsign DLH1CF
Flight time N/A
Altitude 14000
Route TINSA1X TINSA T854 DOMUX DOMUX1A
Aircraft A20N/M-SDE2E3FGHIRWXY/LB1

Departure

Time 2026-05-06 11:40
Airport Paderborn Lippstadt Airport (EDLP)

Arrival

Time N/A
Airport Düsseldorf Airport (EDDL)
Time Latitude Longitude Altitude Speed Heading
2026-05-06 11:12 51.61115 8.61931 731 ft 0 kts 147°
2026-05-06 11:31 51.61130 8.61917 729 ft 4 kts 157°
2026-05-06 11:31 51.61155 8.61907 729 ft 4 kts 186°
2026-05-06 11:32 51.61180 8.61921 729 ft 4 kts 223°
2026-05-06 11:32 51.61189 8.61938 729 ft 1 kts 237°
2026-05-06 11:35 51.61188 8.61935 729 ft 1 kts 237°
2026-05-06 11:35 51.61166 8.61883 729 ft 9 kts 236°
2026-05-06 11:36 51.61140 8.61796 730 ft 8 kts 272°
2026-05-06 11:36 51.61182 8.61723 724 ft 12 kts 327°
2026-05-06 11:36 51.61197 8.61599 719 ft 12 kts 239°
2026-05-06 11:36 51.61158 8.61490 720 ft 10 kts 251°
2026-05-06 11:37 51.61123 8.61404 722 ft 9 kts 234°
2026-05-06 11:37 51.61083 8.61316 719 ft 13 kts 236°
2026-05-06 11:37 51.61025 8.61177 719 ft 16 kts 237°
2026-05-06 11:37 51.60965 8.61034 719 ft 15 kts 240°
2026-05-06 11:38 51.60910 8.60900 717 ft 14 kts 240°
2026-05-06 11:38 51.60855 8.60765 715 ft 14 kts 238°
2026-05-06 11:38 51.60801 8.60629 713 ft 15 kts 237°
2026-05-06 11:38 51.60761 8.60494 712 ft 12 kts 263°
2026-05-06 11:39 51.60778 8.60383 715 ft 8 kts 305°
2026-05-06 11:39 51.60809 8.60345 714 ft 8 kts 334°
2026-05-06 11:39 51.60935 8.60478 717 ft 37 kts 54°
2026-05-06 11:39 51.61160 8.61018 717 ft 89 kts 56°
2026-05-06 11:40 51.61600 8.62110 704 ft 141 kts 54°
2026-05-06 11:40 51.62099 8.63388 1364 ft 127 kts 55°
2026-05-06 11:40 51.62594 8.64816 1656 ft 155 kts 55°
2026-05-06 11:40 51.63224 8.66338 2121 ft 173 kts 52°
2026-05-06 11:41 51.63957 8.68001 2500 ft 192 kts 52°
2026-05-06 11:41 51.64765 8.69841 2868 ft 211 kts 53°
2026-05-06 11:41 51.65697 8.71859 3117 ft 235 kts 42°
2026-05-06 11:41 51.67157 8.73185 3503 ft 254 kts 11°
2026-05-06 11:42 51.68932 8.73140 4047 ft 264 kts 340°
2026-05-06 11:42 51.70509 8.71681 4698 ft 262 kts 313°
2026-05-06 11:42 51.71471 8.69242 4969 ft 260 kts 285°
2026-05-06 11:42 51.71551 8.66344 5468 ft 264 kts 255°
2026-05-06 11:43 51.70770 8.63695 6696 ft 261 kts 234°
2026-05-06 11:43 51.69572 8.61515 7935 ft 261 kts 223°
2026-05-06 11:43 51.68271 8.59450 9047 ft 264 kts 228°
2026-05-06 11:44 51.66308 8.54259 10649 ft 291 kts 243°
2026-05-06 11:44 51.65389 8.51260 11057 ft 314 kts 243°
2026-05-06 11:44 51.64400 8.48051 11800 ft 324 kts 243°
2026-05-06 11:44 51.63383 8.44786 12761 ft 329 kts 242°
2026-05-06 11:45 51.62343 8.41472 13452 ft 334 kts 242°
2026-05-06 11:45 51.61288 8.38127 13709 ft 336 kts 242°
2026-05-06 11:45 51.60230 8.34777 13799 ft 336 kts 242°
2026-05-06 11:45 51.59168 8.31427 13809 ft 336 kts 242°
2026-05-06 11:46 51.58107 8.28082 13804 ft 336 kts 242°
2026-05-06 11:46 51.57044 8.24736 13808 ft 336 kts 242°
2026-05-06 11:46 51.55981 8.21393 13806 ft 336 kts 242°
2026-05-06 11:46 51.54914 8.18050 13809 ft 337 kts 242°
2026-05-06 11:47 51.53860 8.14748 13809 ft 337 kts 242°
2026-05-06 11:47 51.52793 8.11407 13801 ft 337 kts 242°
2026-05-06 11:47 51.51752 8.08014 13813 ft 340 kts 246°
2026-05-06 11:47 51.50980 8.04434 13815 ft 340 kts 253°
2026-05-06 11:48 51.50353 8.00770 13817 ft 340 kts 253°
2026-05-06 11:48 51.49721 7.97121 13821 ft 340 kts 253°
2026-05-06 11:48 51.49084 7.93473 13820 ft 340 kts 253°
2026-05-06 11:48 51.48443 7.89826 13824 ft 339 kts 253°
2026-05-06 11:49 51.47800 7.86184 13822 ft 340 kts 253°
2026-05-06 11:49 51.47163 7.82589 13825 ft 340 kts 253°
2026-05-06 11:49 51.46515 7.78944 13826 ft 340 kts 253°
2026-05-06 11:49 51.45867 7.75304 13829 ft 340 kts 253°
2026-05-06 11:50 51.45217 7.71663 13828 ft 339 kts 253°
2026-05-06 11:50 51.44571 7.68041 13668 ft 337 kts 252°
2026-05-06 11:50 51.43927 7.64443 13239 ft 334 kts 252°
2026-05-06 11:50 51.43286 7.60870 12660 ft 333 kts 252°
2026-05-06 11:51 51.42649 7.57327 12117 ft 330 kts 252°
2026-05-06 11:51 51.42015 7.53811 11567 ft 327 kts 252°
2026-05-06 11:51 51.41397 7.50317 11027 ft 325 kts 253°
2026-05-06 11:51 51.40812 7.46892 10488 ft 322 kts 253°
2026-05-06 11:52 51.40227 7.43443 10087 ft 317 kts 253°
2026-05-06 11:52 51.39663 7.40117 9958 ft 302 kts 253°
2026-05-06 11:52 51.39121 7.36942 9831 ft 289 kts 253°
2026-05-06 11:52 51.38602 7.33920 9703 ft 276 kts 253°
2026-05-06 11:53 51.38093 7.30980 9299 ft 273 kts 253°
2026-05-06 11:53 51.37585 7.28056 8861 ft 272 kts 253°
2026-05-06 11:53 51.37085 7.25178 8420 ft 272 kts 253°
2026-05-06 11:53 51.36577 7.22263 7991 ft 271 kts 253°
2026-05-06 11:54 51.36075 7.19373 7623 ft 269 kts 253°
2026-05-06 11:54 51.35569 7.16477 7123 ft 275 kts 253°
2026-05-06 11:54 51.35054 7.13545 6788 ft 273 kts 253°
2026-05-06 11:54 51.34545 7.10649 6512 ft 269 kts 253°
2026-05-06 11:55 51.34039 7.07764 6122 ft 268 kts 253°
2026-05-06 11:55 51.33536 7.04887 5689 ft 268 kts 253°
2026-05-06 11:55 51.33037 7.02034 5308 ft 265 kts 254°
2026-05-06 11:55 51.32540 6.99200 4899 ft 265 kts 254°
2026-05-06 11:56 51.32047 6.96405 4504 ft 264 kts 255°
2026-05-06 11:56 51.31549 6.93592 4082 ft 263 kts 255°
2026-05-06 11:56 51.31051 6.90779 3664 ft 263 kts 255°
2026-05-06 11:56 51.30550 6.87968 3284 ft 262 kts 256°
2026-05-06 11:57 51.30057 6.85231 3190 ft 251 kts 256°
2026-05-06 11:57 51.29596 6.82633 3042 ft 236 kts 256°
2026-05-06 11:57 51.29167 6.80223 2997 ft 214 kts 257°
2026-05-06 11:57 51.28783 6.78056 3019 ft 190 kts 257°
2026-05-06 11:58 51.28450 6.76190 2995 ft 160 kts 256°
2026-05-06 11:58 51.27969 6.74673 3014 ft 152 kts 237°
2026-05-06 11:58 51.27245 6.73567 2980 ft 140 kts 203°
2026-05-06 11:58 51.26287 6.73648 3012 ft 147 kts 149°
2026-05-06 11:59 51.25738 6.74847 2998 ft 132 kts 91°
2026-05-06 11:59 51.26040 6.76155 3005 ft 125 kts 35°
2026-05-06 11:59 51.26821 6.76706 3004 ft 124 kts 12°
2026-05-06 11:59 51.27682 6.76857 3008 ft 125 kts 358°
2026-05-06 12:00 51.28523 6.76675 2999 ft 123 kts 349°
2026-05-06 12:00 51.29309 6.77096 3011 ft 129 kts 49°
2026-05-06 12:00 51.29570 6.78459 3006 ft 134 kts 77°
2026-05-06 12:00 51.29974 6.79657 2998 ft 121 kts 24°
2026-05-06 12:01 51.30811 6.79951 2998 ft 125 kts
2026-05-06 12:01 51.31660 6.80032 2997 ft 121 kts
2026-05-06 12:01 51.32529 6.80057 2998 ft 125 kts
2026-05-06 12:01 51.33389 6.80065 3011 ft 124 kts 359°
2026-05-06 12:02 51.34255 6.80066 3011 ft 126 kts 359°
2026-05-06 12:02 51.35120 6.80067 3007 ft 124 kts 360°
2026-05-06 12:02 51.35974 6.80066 3003 ft 124 kts 360°
2026-05-06 12:02 51.36832 6.80067 3002 ft 125 kts 360°
2026-05-06 12:03 51.37703 6.79897 3004 ft 129 kts 336°
2026-05-06 12:03 51.38308 6.78858 3014 ft 132 kts 305°
2026-05-06 12:03 51.38793 6.77623 3004 ft 130 kts 305°
2026-05-06 12:03 51.39233 6.76504 3006 ft 132 kts 305°
2026-05-06 12:04 51.39718 6.75262 3006 ft 131 kts 305°
2026-05-06 12:04 51.40192 6.74012 3007 ft 130 kts 304°
2026-05-06 12:04 51.40625 6.72739 2994 ft 134 kts 287°
2026-05-06 12:04 51.40494 6.71221 2992 ft 141 kts 254°
2026-05-06 12:05 51.39939 6.69949 3014 ft 146 kts 232°
2026-05-06 12:05 51.39278 6.68734 3014 ft 146 kts 232°
2026-05-06 12:05 51.38623 6.67494 3010 ft 143 kts 232°
2026-05-06 12:05 51.37983 6.66305 3012 ft 141 kts 232°
2026-05-06 12:06 51.37337 6.65114 3012 ft 142 kts 231°
2026-05-06 12:06 51.36695 6.63920 3009 ft 139 kts 232°
2026-05-06 12:06 51.35988 6.62862 3006 ft 141 kts 208°
2026-05-06 12:06 51.35026 6.62449 3012 ft 148 kts 192°
2026-05-06 12:07 51.34041 6.62113 3011 ft 146 kts 194°
2026-05-06 12:07 51.33060 6.61754 3012 ft 144 kts 194°
2026-05-06 12:07 51.32427 6.61509 3001 ft 146 kts 194°